Regional Weather Roundup
Issued by NWS Cleveland, OH

Home | Current Version | Previous Version | Graphics & Text | Print | Product List | Glossary On
Versions: 1 2 3 4 5 6 7 8 9 10 11 12 13 14 15 16 17 18 19 20 21 22 23 24 25 26 27 28 29 30 31 32 33 34 35 36 37 38 39 40 41 42 43 44 45 46 47 48 49 50
000
ASUS41 KCLE 220310
RWRCLE
OHIO REGIONAL WEATHER ROUNDUP
NATIONAL WEATHER SERVICE WILMINGTON, OH
1000 PM EST TUE FEB 21 2017

NOTE: "FAIR" INDICATES FEW OR NO CLOUDS BELOW 12,000 FEET WITH NO
SIGNIFICANT WEATHER AND/OR OBSTRUCTIONS TO VISIBILITY.

OHZ001>008-015>018-024>027-034-035-043-044-220400-
   NORTHWEST OHIO

CITY           SKY/WX    TMP DP  RH WIND       PRES   REMARKS
DEFIANCE       CLOUDY    49  48  97 S3        29.95R
FINDLAY        MOCLDY    53  47  79 S3        29.95R
TOLEDO EXPRESS FAIR      49  49 100 CALM      29.93F
TOLEDO EXEC    MOCLDY    49  48  97 SE5       29.94F FOG
LIMA           CLOUDY    57  49  74 SW7       29.96R
$$

OHZ009>014-019>023-028>033-038-089-220400-
   NORTHEAST OHIO

CITY           SKY/WX    TMP DP  RH WIND       PRES   REMARKS
CLE-HOPKINS    CLOUDY    56  45  66 E3        29.98S
CLE-LAKEFRONT  CLOUDY    49  42  77 CALM      29.96S
CUY CO. ARPT   CLOUDY    54  45  71 CALM      29.98R
LORAIN-ELYRIA  CLOUDY    52  45  77 S3        29.96F
ASHTABULA      MOCLDY    48  44  86 CALM      29.98S
AKRON-CANTON   CLOUDY    57  45  64 SW6       29.97S
WOOSTER        CLOUDY    57  46  66 SW7       29.96S
MANSFIELD      CLOUDY    58  48  69 S7        29.96S
YOUNGSTOWN     CLOUDY    59  44  57 S7        29.97S
$$

OHZ042-051>053-060>062-070>072-077>081-220400-
  SOUTHWEST OHIO

CITY           SKY/WX    TMP DP  RH WIND       PRES   REMARKS
CINC-COVINGTON RAIN      56  56 100 SE9       29.98F FOG
CINC-LUNKEN    LGT RAIN  54  54 100 CALM      30.00S VSB 3/4
HAMILTON       LGT RAIN  55  55 100 E3        30.00S FOG
DAYTON         LGT RAIN  56  53  90 S13       29.99R
WRIGHT-PAT AFB LGT RAIN  56  56 100 S5        29.98S
DAYTON GENERAL LGT RAIN  55  53  93 S5        29.98S
WILMINGTON     LGT RAIN  53  52  96 S3        30.00S
$$

OHZ036-037-039>041-045>050-054>059-063>069-073>076-082>088-220400-
  CENTRAL AND SOUTHEAST OHIO

CITY           SKY/WX    TMP DP  RH WIND       PRES   REMARKS
COLUMBUS       LGT RAIN  58  51  78 S3        29.98R
OSU AIRPORT    CLOUDY    57  51  80 S9        29.98R
BOLTON FIELD   LGT RAIN  55  51  85 SW9       30.00R
RICKENBACK AFB RAIN      54  52  94 SW3       29.98S
NEWARK         CLOUDY    57  50  77 SW6       29.97S
MARION         CLOUDY    57  48  72 S8        29.97S
LANCASTER      CLOUDY    56  52  86 CALM      29.99S
ZANESVILLE     CLOUDY    57  49  74 SW5       29.98S
NEW PHILLY     MOCLDY    54  47  77 NE5       29.98R
$$



USA.gov is the U.S. government's official web portal to all federal, state and local government web resources and services.